Time,TemperatureF,DewpointF,PressureIn,WindDirection,WindDirectionDegrees,WindSpeedMPH,WindSpeedGustMPH,Humidity,HourlyPrecipIn,Conditions,Clouds,dailyrainin,SoftwareType,DateUTC
2013-01-24 00:00:00,47.3,27.0,30.33,East,90,0.0,0.0,45,0.00,,,0.00,VWS V14.01,2013-01-24 05:00:00,
2013-01-24 00:01:00,47.3,27.0,30.33,East,90,0.0,0.0,45,0.00,,,0.00,VWS V14.01,2013-01-24 05:01:00,
2013-01-24 00:03:00,47.1,26.9,30.36,East,90,0.0,0.0,45,0.00,,,0.00,VWS V14.01,2013-01-24 05:03:00,
2013-01-24 00:08:00,46.8,26.6,30.36,East,90,0.0,0.0,45,0.00,,,0.00,VWS V14.01,2013-01-24 05:08:00,
2013-01-24 00:13:00,46.6,26.4,30.36,East,90,0.0,0.0,45,0.00,,,0.00,VWS V14.01,2013-01-24 05:13:00,
2013-01-24 00:18:00,46.4,26.2,30.33,NNW,338,0.0,0.0,45,0.00,,,0.00,VWS V14.01,2013-01-24 05:18:00,
2013-01-24 00:23:00,46.8,27.6,30.33,NNW,338,0.0,0.0,47,0.00,,,0.00,VWS V14.01,2013-01-24 05:23:00,
2013-01-24 00:28:00,46.8,27.6,30.33,WNW,292,0.0,0.0,47,0.00,,,0.00,VWS V14.01,2013-01-24 05:28:00,
2013-01-24 00:33:00,46.8,27.6,30.33,North,0,0.0,1.3,47,0.00,,,0.00,VWS V14.01,2013-01-24 05:33:00,
2013-01-24 00:38:00,46.8,28.1,30.33,NNW,338,1.1,1.3,48,0.00,,,0.00,VWS V14.01,2013-01-24 05:38:00,
2013-01-24 00:43:00,46.8,27.6,30.33,NW,315,0.0,0.0,47,0.00,,,0.00,VWS V14.01,2013-01-24 05:43:00,
2013-01-24 00:48:00,46.8,28.1,30.30,NNW,338,0.0,0.0,48,0.00,,,0.00,VWS V14.01,2013-01-24 05:48:00,
2013-01-24 00:53:00,46.6,28.0,30.30,NNW,338,0.0,0.0,48,0.00,,,0.00,VWS V14.01,2013-01-24 05:53:00,
2013-01-24 00:58:00,46.8,28.1,30.30,SW,225,0.0,0.0,48,0.00,,,0.00,VWS V14.01,2013-01-24 05:58:00,
2013-01-24 01:03:00,46.8,27.6,30.33,SW,225,0.0,0.9,47,0.00,,,0.00,VWS V14.01,2013-01-24 06:03:00,
2013-01-24 01:08:00,46.9,28.3,30.33,North,0,0.0,0.0,48,0.00,,,0.00,VWS V14.01,2013-01-24 06:08:00,
2013-01-24 01:13:00,46.9,28.8,30.33,ENE,68,0.0,0.0,49,0.00,,,0.00,VWS V14.01,2013-01-24 06:13:00,
2013-01-24 01:18:00,46.6,28.5,30.33,ENE,68,1.1,1.1,49,0.00,,,0.00,VWS V14.01,2013-01-24 06:18:00,
2013-01-24 01:23:00,46.2,28.1,30.30,ENE,68,0.0,2.2,49,0.00,,,0.00,VWS V14.01,2013-01-24 06:23:00,
2013-01-24 01:28:00,46.0,28.0,30.30,ENE,68,0.9,1.3,49,0.00,,,0.00,VWS V14.01,2013-01-24 06:28:00,
2013-01-24 01:33:00,46.0,28.0,30.30,East,90,1.6,1.6,49,0.00,,,0.00,VWS V14.01,2013-01-24 06:33:00,
2013-01-24 01:38:00,46.0,28.0,30.33,East,90,0.0,0.0,49,0.00,,,0.00,VWS V14.01,2013-01-24 06:38:00,
2013-01-24 01:43:00,46.0,28.9,30.33,ESE,112,2.0,2.2,51,0.00,,,0.00,VWS V14.01,2013-01-24 06:43:00,
2013-01-24 01:48:00,46.0,29.4,30.33,ESE,112,1.1,1.1,52,0.00,,,0.00,VWS V14.01,2013-01-24 06:48:00,
2013-01-24 01:53:00,46.0,28.9,30.33,ENE,68,1.3,1.3,51,0.00,,,0.00,VWS V14.01,2013-01-24 06:53:00,
2013-01-24 01:58:00,45.9,28.8,30.33,ENE,68,1.3,1.3,51,0.00,,,0.00,VWS V14.01,2013-01-24 06:58:00,
2013-01-24 02:03:00,45.7,28.6,30.33,ENE,68,0.0,0.0,51,0.00,,,0.00,VWS V14.01,2013-01-24 07:03:00,
2013-01-24 02:08:00,45.7,28.6,30.33,NNW,338,0.0,0.0,51,0.00,,,0.00,VWS V14.01,2013-01-24 07:08:00,
2013-01-24 02:13:00,45.9,29.2,30.33,NNW,338,1.3,1.3,52,0.00,,,0.00,VWS V14.01,2013-01-24 07:13:00,
2013-01-24 02:18:00,46.0,28.9,30.33,NNE,22,0.0,0.0,51,0.00,,,0.00,VWS V14.01,2013-01-24 07:18:00,
2013-01-24 02:23:00,45.9,28.8,30.33,NNE,22,0.0,0.0,51,0.00,,,0.00,VWS V14.01,2013-01-24 07:23:00,
2013-01-24 02:28:00,45.5,28.0,30.33,NW,315,0.0,0.0,50,0.00,,,0.00,VWS V14.01,2013-01-24 07:28:00,
2013-01-24 02:33:00,45.7,28.6,30.33,WNW,292,1.1,1.1,51,0.00,,,0.00,VWS V14.01,2013-01-24 07:33:00,
2013-01-24 02:38:00,45.9,28.8,30.33,WNW,292,0.0,1.6,51,0.00,,,0.00,VWS V14.01,2013-01-24 07:38:00,
2013-01-24 02:43:00,45.9,28.8,30.33,NW,315,1.3,2.2,51,0.00,,,0.00,VWS V14.01,2013-01-24 07:43:00,
2013-01-24 02:48:00,45.7,28.6,30.30,WSW,248,1.3,1.6,51,0.00,,,0.00,VWS V14.01,2013-01-24 07:48:00,
2013-01-24 02:53:00,45.7,29.1,30.30,NNE,22,1.6,1.6,52,0.00,,,0.00,VWS V14.01,2013-01-24 07:53:00,
2013-01-24 02:58:00,45.5,28.4,30.30,ENE,68,1.3,1.6,51,0.00,,,0.00,VWS V14.01,2013-01-24 07:58:00,
2013-01-24 03:03:00,45.0,27.5,30.30,NNE,22,0.0,0.0,50,0.00,,,0.00,VWS V14.01,2013-01-24 08:03:00,
2013-01-24 03:08:00,44.8,27.3,30.30,NNE,22,0.0,0.0,50,0.00,,,0.00,VWS V14.01,2013-01-24 08:08:00,
2013-01-24 03:13:00,44.4,27.4,30.30,North,0,1.1,1.1,51,0.00,,,0.00,VWS V14.01,2013-01-24 08:13:00,
2013-01-24 03:18:00,44.2,27.3,30.30,North,0,0.0,0.0,51,0.00,,,0.00,VWS V14.01,2013-01-24 08:18:00,
2013-01-24 03:23:00,44.1,27.1,30.30,NW,315,0.0,0.0,51,0.00,,,0.00,VWS V14.01,2013-01-24 08:23:00,
2013-01-24 03:29:00,44.1,27.1,30.30,NW,315,0.9,0.9,51,0.00,,,0.00,VWS V14.01,2013-01-24 08:29:00,
2013-01-24 03:34:00,44.2,27.3,30.30,WNW,292,2.2,2.5,51,0.00,,,0.00,VWS V14.01,2013-01-24 08:34:00,
2013-01-24 03:39:00,44.6,28.1,30.30,WSW,248,2.7,2.7,52,0.00,,,0.00,VWS V14.01,2013-01-24 08:39:00,
2013-01-24 03:44:00,44.6,28.1,30.30,NW,315,2.0,2.0,52,0.00,,,0.00,VWS V14.01,2013-01-24 08:44:00,
2013-01-24 03:49:00,44.6,28.1,30.30,WNW,292,2.0,2.0,52,0.00,,,0.00,VWS V14.01,2013-01-24 08:49:00,
2013-01-24 03:54:00,44.6,28.1,30.30,NNW,338,0.0,0.0,52,0.00,,,0.00,VWS V14.01,2013-01-24 08:54:00,
2013-01-24 03:59:00,44.6,28.1,30.30,NNW,338,0.0,0.9,52,0.00,,,0.00,VWS V14.01,2013-01-24 08:59:00,
2013-01-24 04:04:00,44.8,28.2,30.33,NNW,338,0.9,1.1,52,0.00,,,0.00,VWS V14.01,2013-01-24 09:04:00,
2013-01-24 04:09:00,44.8,28.2,30.33,WNW,292,1.6,1.6,52,0.00,,,0.00,VWS V14.01,2013-01-24 09:09:00,
2013-01-24 04:14:00,44.6,28.1,30.33,NNW,338,0.0,0.0,52,0.00,,,0.00,VWS V14.01,2013-01-24 09:14:00,
2013-01-24 04:19:00,44.2,27.7,30.33,NNE,22,1.1,2.5,52,0.00,,,0.00,VWS V14.01,2013-01-24 09:19:00,
2013-01-24 04:24:00,44.2,27.7,30.33,NNW,338,0.9,1.3,52,0.00,,,0.00,VWS V14.01,2013-01-24 09:24:00,
2013-01-24 04:29:00,44.1,27.6,30.33,NE,45,0.0,0.0,52,0.00,,,0.00,VWS V14.01,2013-01-24 09:29:00,
2013-01-24 04:34:00,43.9,27.4,30.33,ENE,68,0.0,0.0,52,0.00,,,0.00,VWS V14.01,2013-01-24 09:34:00,
2013-01-24 04:39:00,43.7,27.2,30.33,North,0,0.0,1.1,52,0.00,,,0.00,VWS V14.01,2013-01-24 09:39:00,
2013-01-24 04:44:00,43.7,27.2,30.33,NNE,22,0.0,0.0,52,0.00,,,0.00,VWS V14.01,2013-01-24 09:44:00,
2013-01-24 04:49:00,43.7,27.2,30.30,North,0,0.0,0.0,52,0.00,,,0.00,VWS V14.01,2013-01-24 09:49:00,
2013-01-24 04:54:00,43.5,26.6,30.30,ENE,68,0.0,0.0,51,0.00,,,0.00,VWS V14.01,2013-01-24 09:54:00,
2013-01-24 04:59:00,43.5,27.1,30.30,ENE,68,0.0,0.0,52,0.00,,,0.00,VWS V14.01,2013-01-24 09:59:00,
2013-01-24 05:04:00,43.5,27.1,30.33,NW,315,1.1,1.1,52,0.00,,,0.00,VWS V14.01,2013-01-24 10:04:00,
2013-01-24 05:09:00,43.7,27.2,30.33,WNW,292,1.1,1.3,52,0.00,,,0.00,VWS V14.01,2013-01-24 10:09:00,
2013-01-24 05:14:00,43.7,27.2,30.33,WNW,292,0.0,0.0,52,0.00,,,0.00,VWS V14.01,2013-01-24 10:14:00,
2013-01-24 05:19:00,43.7,27.2,30.33,NE,45,0.0,0.0,52,0.00,,,0.00,VWS V14.01,2013-01-24 10:19:00,
2013-01-24 05:24:00,43.5,27.1,30.33,East,90,0.0,0.0,52,0.00,,,0.00,VWS V14.01,2013-01-24 10:24:00,
2013-01-24 05:29:00,43.3,26.9,30.33,East,90,0.0,0.0,52,0.00,,,0.00,VWS V14.01,2013-01-24 10:29:00,
2013-01-24 05:34:00,43.3,26.9,30.33,ESE,112,1.6,1.6,52,0.00,,,0.00,VWS V14.01,2013-01-24 10:34:00,
2013-01-24 05:39:00,43.3,27.4,30.33,SE,135,2.5,2.5,53,0.00,,,0.00,VWS V14.01,2013-01-24 10:39:00,
2013-01-24 05:44:00,43.2,27.2,30.33,ESE,112,0.9,1.1,53,0.00,,,0.00,VWS V14.01,2013-01-24 10:44:00,
2013-01-24 05:49:00,43.0,27.0,30.30,ESE,112,0.0,0.0,53,0.00,,,0.00,VWS V14.01,2013-01-24 10:49:00,
2013-01-24 05:54:00,42.8,26.4,30.30,ESE,112,0.0,0.0,52,0.00,,,0.00,VWS V14.01,2013-01-24 10:54:00,
2013-01-24 05:59:00,42.4,26.1,30.30,East,90,0.0,0.0,52,0.00,,,0.00,VWS V14.01,2013-01-24 10:59:00,
2013-01-24 06:04:00,42.6,27.1,30.33,SSE,158,2.5,2.5,54,0.00,,,0.00,VWS V14.01,2013-01-24 11:04:00,
2013-01-24 06:09:00,42.8,27.8,30.33,SE,135,2.0,2.0,55,0.00,,,0.00,VWS V14.01,2013-01-24 11:09:00,
2013-01-24 06:14:00,42.6,27.1,30.33,ESE,112,0.0,0.0,54,0.00,,,0.00,VWS V14.01,2013-01-24 11:14:00,
2013-01-24 06:19:00,42.6,27.1,30.33,ESE,112,0.0,0.0,54,0.00,,,0.00,VWS V14.01,2013-01-24 11:19:00,
2013-01-24 06:24:00,42.6,27.6,30.33,ESE,112,0.0,0.0,55,0.00,,,0.00,VWS V14.01,2013-01-24 11:24:00,
2013-01-24 06:29:00,42.8,27.3,30.33,ESE,112,0.0,0.0,54,0.00,,,0.00,VWS V14.01,2013-01-24 11:29:00,
2013-01-24 06:34:00,42.6,27.1,30.33,ESE,112,0.0,0.0,54,0.00,,,0.00,VWS V14.01,2013-01-24 11:34:00,
2013-01-24 06:39:00,42.4,27.0,30.33,ESE,112,0.0,0.0,54,0.00,,,0.00,VWS V14.01,2013-01-24 11:39:00,
2013-01-24 06:44:00,42.4,27.0,30.33,NNE,22,0.9,1.3,54,0.00,,,0.00,VWS V14.01,2013-01-24 11:44:00,
2013-01-24 06:49:00,42.4,27.0,30.33,NNE,22,0.0,0.0,54,0.00,,,0.00,VWS V14.01,2013-01-24 11:49:00,
2013-01-24 06:54:00,42.8,27.8,30.33,NW,315,0.0,0.0,55,0.00,,,0.00,VWS V14.01,2013-01-24 11:54:00,
2013-01-24 06:59:00,43.0,27.9,30.33,NW,315,0.0,0.0,55,0.00,,,0.00,VWS V14.01,2013-01-24 11:59:00,
2013-01-24 07:04:00,43.0,27.9,30.33,NW,315,0.0,0.0,55,0.00,,,0.00,VWS V14.01,2013-01-24 12:04:00,
2013-01-24 07:09:00,43.3,28.3,30.33,WNW,292,0.0,0.0,55,0.00,,,0.00,VWS V14.01,2013-01-24 12:09:00,
2013-01-24 07:14:00,43.3,28.3,30.33,NNW,338,0.0,0.0,55,0.00,,,0.00,VWS V14.01,2013-01-24 12:14:00,
2013-01-24 07:19:00,43.3,28.3,30.33,NNW,338,0.0,0.0,55,0.00,,,0.00,VWS V14.01,2013-01-24 12:19:00,
2013-01-24 07:24:00,43.3,28.3,30.33,WNW,292,0.0,0.0,55,0.00,,,0.00,VWS V14.01,2013-01-24 12:24:00,
2013-01-24 07:29:00,43.5,28.4,30.33,WNW,292,1.1,1.1,55,0.00,,,0.00,VWS V14.01,2013-01-24 12:29:00,
2013-01-24 07:34:00,43.9,29.2,30.33,WNW,292,0.0,0.0,56,0.00,,,0.00,VWS V14.01,2013-01-24 12:34:00,
2013-01-24 07:39:00,44.1,29.4,30.33,West,270,1.3,1.3,56,0.00,,,0.00,VWS V14.01,2013-01-24 12:39:00,
2013-01-24 07:44:00,44.6,30.3,30.33,WNW,292,1.1,1.6,57,0.00,,,0.00,VWS V14.01,2013-01-24 12:44:00,
2013-01-24 07:50:00,45.1,30.8,30.33,WNW,292,2.2,2.2,57,0.00,,,0.00,VWS V14.01,2013-01-24 12:50:00,
2013-01-24 07:54:00,46.4,32.4,30.33,West,270,0.9,0.9,58,0.00,,,0.00,VWS V14.01,2013-01-24 12:54:00,
2013-01-24 07:59:00,47.1,33.5,30.33,WSW,248,0.0,0.0,59,0.00,,,0.00,VWS V14.01,2013-01-24 12:59:00,
2013-01-24 08:05:00,48.6,35.7,30.33,NNW,338,0.0,0.0,61,0.00,,,0.00,VWS V14.01,2013-01-24 13:05:00,
2013-01-24 08:10:00,49.6,37.6,30.33,WNW,292,0.0,0.0,63,0.00,,,0.00,VWS V14.01,2013-01-24 13:10:00,
2013-01-24 08:15:00,50.7,38.6,30.33,West,270,2.5,2.5,63,0.00,,,0.00,VWS V14.01,2013-01-24 13:15:00,
2013-01-24 08:20:00,51.6,39.0,30.36,WNW,292,1.6,1.6,62,0.00,,,0.00,VWS V14.01,2013-01-24 13:20:00,
2013-01-24 08:25:00,52.2,38.7,30.36,WNW,292,1.1,1.1,60,0.00,,,0.00,VWS V14.01,2013-01-24 13:25:00,
2013-01-24 08:30:00,53.6,38.8,30.36,NNW,338,1.1,1.1,57,0.00,,,0.00,VWS V14.01,2013-01-24 13:30:00,
2013-01-24 08:35:00,54.7,38.4,30.39,NNW,338,2.0,2.0,54,0.00,,,0.00,VWS V14.01,2013-01-24 13:35:00,
2013-01-24 08:40:00,55.6,38.2,30.39,West,270,1.1,1.6,52,0.00,,,0.00,VWS V14.01,2013-01-24 13:40:00,
2013-01-24 08:45:00,56.8,38.4,30.39,NNW,338,1.3,1.6,50,0.00,,,0.00,VWS V14.01,2013-01-24 13:45:00,
2013-01-24 08:50:00,58.3,38.7,30.39,WNW,292,0.0,1.1,48,0.00,,,0.00,VWS V14.01,2013-01-24 13:50:00,
2013-01-24 08:55:00,59.4,38.6,30.39,NNE,22,0.0,1.6,46,0.00,,,0.00,VWS V14.01,2013-01-24 13:55:00,
2013-01-24 09:00:00,60.1,38.1,30.39,West,270,1.3,2.7,44,0.00,,,0.00,VWS V14.01,2013-01-24 14:00:00,
2013-01-24 09:05:00,60.4,36.0,30.39,NNW,338,2.7,2.7,40,0.00,,,0.00,VWS V14.01,2013-01-24 14:05:00,
2013-01-24 09:10:00,61.2,35.4,30.39,WNW,292,1.1,1.6,38,0.00,,,0.00,VWS V14.01,2013-01-24 14:10:00,
2013-01-24 09:15:00,62.1,36.2,30.39,NW,315,2.2,2.5,38,0.00,,,0.00,VWS V14.01,2013-01-24 14:15:00,
2013-01-24 09:20:00,63.1,36.5,30.39,WNW,292,0.9,2.2,37,0.00,,,0.00,VWS V14.01,2013-01-24 14:20:00,
2013-01-24 09:25:00,64.0,35.9,30.39,NNW,338,2.7,2.7,35,0.00,,,0.00,VWS V14.01,2013-01-24 14:25:00,
2013-01-24 09:30:00,64.2,35.3,30.39,NNW,338,2.7,2.7,34,0.00,,,0.00,VWS V14.01,2013-01-24 14:30:00,
2013-01-24 09:35:00,65.1,35.3,30.39,NNW,338,2.7,2.7,33,0.00,,,0.00,VWS V14.01,2013-01-24 14:35:00,
2013-01-24 09:40:00,66.2,33.9,30.39,ENE,68,3.4,3.4,30,0.00,,,0.00,VWS V14.01,2013-01-24 14:40:00,
2013-01-24 09:45:00,66.6,32.5,30.39,WNW,292,2.5,3.4,28,0.00,,,0.00,VWS V14.01,2013-01-24 14:45:00,
2013-01-24 09:50:00,66.9,31.0,30.39,West,270,4.3,6.3,26,0.00,,,0.00,VWS V14.01,2013-01-24 14:50:00,
2013-01-24 09:55:00,66.9,29.0,30.39,NNW,338,3.4,3.6,24,0.00,,,0.00,VWS V14.01,2013-01-24 14:55:00,
2013-01-24 10:00:00,67.8,29.7,30.39,WNW,292,2.7,3.4,24,0.00,,,0.00,VWS V14.01,2013-01-24 15:00:00,
2013-01-24 10:05:00,67.6,28.5,30.39,West,270,2.7,3.6,23,0.00,,,0.00,VWS V14.01,2013-01-24 15:05:00,
2013-01-24 10:10:00,68.0,27.8,30.39,WNW,292,3.8,5.6,22,0.00,,,0.00,VWS V14.01,2013-01-24 15:10:00,
2013-01-24 10:15:00,68.2,25.6,30.39,West,270,3.4,3.4,20,0.00,,,0.00,VWS V14.01,2013-01-24 15:15:00,
2013-01-24 10:20:00,68.9,26.2,30.36,West,270,2.9,4.9,20,0.00,,,0.00,VWS V14.01,2013-01-24 15:20:00,
2013-01-24 10:25:00,70.3,26.2,30.36,NW,315,3.8,3.8,19,0.00,,,0.00,VWS V14.01,2013-01-24 15:25:00,
2013-01-24 10:30:00,71.1,24.1,30.36,West,270,3.4,3.4,17,0.00,,,0.00,VWS V14.01,2013-01-24 15:30:00,
2013-01-24 10:35:00,72.1,23.5,30.36,West,270,2.5,2.5,16,0.00,,,0.00,VWS V14.01,2013-01-24 15:35:00,
2013-01-24 10:40:00,73.0,24.2,30.36,WSW,248,1.1,2.0,16,0.00,,,0.00,VWS V14.01,2013-01-24 15:40:00,
2013-01-24 10:45:00,74.5,25.4,30.36,WSW,248,2.7,2.7,16,0.00,,,0.00,VWS V14.01,2013-01-24 15:45:00,
2013-01-24 10:50:00,74.5,20.5,30.39,West,270,2.2,2.5,13,0.00,,,0.00,VWS V14.01,2013-01-24 15:50:00,
2013-01-24 10:55:00,75.2,21.0,30.39,WSW,248,1.1,2.9,13,0.00,,,0.00,VWS V14.01,2013-01-24 15:55:00,
2013-01-24 11:00:00,76.1,21.7,30.39,WSW,248,1.6,2.2,13,0.00,,,0.00,VWS V14.01,2013-01-24 16:00:00,
2013-01-24 11:05:00,75.9,21.6,30.36,WNW,292,3.1,3.1,13,0.00,,,0.00,VWS V14.01,2013-01-24 16:05:00,
2013-01-24 11:10:00,74.8,20.7,30.36,West,270,2.7,2.9,13,0.00,,,0.00,VWS V14.01,2013-01-24 16:10:00,
2013-01-24 11:15:00,74.5,20.5,30.36,West,270,3.6,4.3,13,0.00,,,0.00,VWS V14.01,2013-01-24 16:15:00,
2013-01-24 11:20:00,74.7,20.6,30.39,West,270,3.4,3.6,13,0.00,,,0.00,VWS V14.01,2013-01-24 16:20:00,
2013-01-24 11:25:00,74.7,20.6,30.39,West,270,3.1,5.6,13,0.00,,,0.00,VWS V14.01,2013-01-24 16:25:00,
2013-01-24 11:30:00,74.7,20.6,30.39,WNW,292,4.0,5.6,13,0.00,,,0.00,VWS V14.01,2013-01-24 16:30:00,
2013-01-24 11:36:00,74.7,20.6,30.39,WSW,248,5.4,5.4,13,0.00,,,0.00,VWS V14.01,2013-01-24 16:36:00,
2013-01-24 11:41:00,74.5,20.5,30.39,West,270,5.8,5.8,13,0.00,,,0.00,VWS V14.01,2013-01-24 16:41:00,
2013-01-24 11:46:00,75.2,21.0,30.39,West,270,3.8,3.8,13,0.00,,,0.00,VWS V14.01,2013-01-24 16:46:00,
2013-01-24 11:51:00,74.7,20.6,30.39,WSW,248,5.4,5.4,13,0.00,,,0.00,VWS V14.01,2013-01-24 16:51:00,
2013-01-24 11:56:00,73.9,20.0,30.39,West,270,3.4,3.8,13,0.00,,,0.00,VWS V14.01,2013-01-24 16:56:00,
2013-01-24 12:01:00,74.5,20.5,30.39,ENE,68,4.0,4.0,13,0.00,,,0.00,VWS V14.01,2013-01-24 17:01:00,
2013-01-24 12:06:00,75.0,20.9,30.39,West,270,5.6,8.5,13,0.00,,,0.00,VWS V14.01,2013-01-24 17:06:00,
2013-01-24 12:11:00,74.3,20.3,30.39,West,270,3.6,3.6,13,0.00,,,0.00,VWS V14.01,2013-01-24 17:11:00,
2013-01-24 12:16:00,74.3,20.3,30.39,WNW,292,4.0,6.3,13,0.00,,,0.00,VWS V14.01,2013-01-24 17:16:00,
2013-01-24 12:21:00,74.3,20.3,30.36,NW,315,5.4,7.6,13,0.00,,,0.00,VWS V14.01,2013-01-24 17:21:00,
2013-01-24 12:26:00,74.3,20.3,30.36,SW,225,5.4,6.0,13,0.00,,,0.00,VWS V14.01,2013-01-24 17:26:00,
2013-01-24 12:31:00,75.2,21.0,30.36,WNW,292,3.8,4.3,13,0.00,,,0.00,VWS V14.01,2013-01-24 17:31:00,
2013-01-24 12:36:00,74.1,20.2,30.36,WNW,292,10.3,10.3,13,0.00,,,0.00,VWS V14.01,2013-01-24 17:36:00,
2013-01-24 12:41:00,73.9,20.0,30.36,WNW,292,3.6,7.6,13,0.00,,,0.00,VWS V14.01,2013-01-24 17:41:00,
2013-01-24 12:46:00,74.1,20.2,30.36,West,270,5.6,5.6,13,0.00,,,0.00,VWS V14.01,2013-01-24 17:46:00,
2013-01-24 12:51:00,73.6,19.8,30.33,West,270,6.9,6.9,13,0.00,,,0.00,VWS V14.01,2013-01-24 17:51:00,
2013-01-24 12:56:00,74.1,20.2,30.33,NNW,338,5.8,5.8,13,0.00,,,0.00,VWS V14.01,2013-01-24 17:56:00,
2013-01-24 13:01:00,74.5,20.5,30.33,WNW,292,2.7,6.5,13,0.00,,,0.00,VWS V14.01,2013-01-24 18:01:00,
2013-01-24 13:06:00,74.7,20.6,30.30,West,270,8.5,8.5,13,0.00,,,0.00,VWS V14.01,2013-01-24 18:06:00,
2013-01-24 13:11:00,73.8,19.9,30.30,WSW,248,5.4,5.4,13,0.00,,,0.00,VWS V14.01,2013-01-24 18:11:00,
2013-01-24 13:16:00,72.9,20.9,30.30,WSW,248,5.4,8.1,14,0.00,,,0.00,VWS V14.01,2013-01-24 18:16:00,
2013-01-24 13:21:00,72.3,20.5,30.36,NNW,338,7.6,11.0,14,0.00,,,0.00,VWS V14.01,2013-01-24 18:21:00,
2013-01-24 13:26:00,72.3,20.5,30.36,West,270,10.5,10.5,14,0.00,,,0.00,VWS V14.01,2013-01-24 18:26:00,
2013-01-24 13:31:00,71.6,19.9,30.36,NW,315,10.3,10.3,14,0.00,,,0.00,VWS V14.01,2013-01-24 18:31:00,
2013-01-24 13:36:00,72.0,20.2,30.33,West,270,4.0,4.9,14,0.00,,,0.00,VWS V14.01,2013-01-24 18:36:00,
2013-01-24 13:41:00,71.8,20.1,30.33,NW,315,6.0,12.1,14,0.00,,,0.00,VWS V14.01,2013-01-24 18:41:00,
2013-01-24 13:46:00,72.7,20.8,30.33,NNW,338,6.5,6.7,14,0.00,,,0.00,VWS V14.01,2013-01-24 18:46:00,
2013-01-24 13:51:00,72.9,20.9,30.33,NNW,338,7.8,7.8,14,0.00,,,0.00,VWS V14.01,2013-01-24 18:51:00,
2013-01-24 13:56:00,72.7,20.8,30.33,WNW,292,3.1,4.9,14,0.00,,,0.00,VWS V14.01,2013-01-24 18:56:00,
2013-01-24 14:01:00,73.8,19.9,30.33,WNW,292,3.8,5.6,13,0.00,,,0.00,VWS V14.01,2013-01-24 19:01:00,
2013-01-24 14:06:00,74.3,20.3,30.33,West,270,3.6,3.8,13,0.00,,,0.00,VWS V14.01,2013-01-24 19:06:00,
2013-01-24 14:11:00,73.9,20.0,30.33,NNW,338,6.5,6.5,13,0.00,,,0.00,VWS V14.01,2013-01-24 19:11:00,
2013-01-24 14:16:00,74.7,20.6,30.33,WNW,292,8.1,8.1,13,0.00,,,0.00,VWS V14.01,2013-01-24 19:16:00,
2013-01-24 14:21:00,74.8,20.7,30.30,West,270,3.1,3.1,13,0.00,,,0.00,VWS V14.01,2013-01-24 19:21:00,
2013-01-24 14:26:00,74.5,20.5,30.30,West,270,6.0,6.0,13,0.00,,,0.00,VWS V14.01,2013-01-24 19:26:00,
2013-01-24 14:31:00,73.0,21.1,30.30,North,0,6.3,6.3,14,0.00,,,0.00,VWS V14.01,2013-01-24 19:31:00,
2013-01-24 14:36:00,72.7,20.8,30.30,West,270,5.8,9.8,14,0.00,,,0.00,VWS V14.01,2013-01-24 19:36:00,
2013-01-24 14:41:00,73.0,21.1,30.30,North,0,4.9,6.3,14,0.00,,,0.00,VWS V14.01,2013-01-24 19:41:00,
2013-01-24 14:46:00,73.4,19.6,30.30,North,0,3.8,6.3,13,0.00,,,0.00,VWS V14.01,2013-01-24 19:46:00,
2013-01-24 14:51:00,73.4,19.6,30.30,NNW,338,5.8,7.4,13,0.00,,,0.00,VWS V14.01,2013-01-24 19:51:00,
2013-01-24 14:56:00,73.8,19.9,30.30,North,0,3.8,6.3,13,0.00,,,0.00,VWS V14.01,2013-01-24 19:56:00,
2013-01-24 15:01:00,73.4,19.6,30.30,NW,315,6.3,7.6,13,0.00,,,0.00,VWS V14.01,2013-01-24 20:01:00,
2013-01-24 15:06:00,72.9,20.9,30.30,West,270,4.7,4.9,14,0.00,,,0.00,VWS V14.01,2013-01-24 20:06:00,
2013-01-24 15:11:00,72.9,20.9,30.30,West,270,8.1,11.4,14,0.00,,,0.00,VWS V14.01,2013-01-24 20:11:00,
2013-01-24 15:16:00,72.3,20.5,30.30,West,270,7.4,7.6,14,0.00,,,0.00,VWS V14.01,2013-01-24 20:16:00,
2013-01-24 15:21:00,72.1,20.4,30.30,SSW,202,5.4,6.5,14,0.00,,,0.00,VWS V14.01,2013-01-24 20:21:00,
2013-01-24 15:26:00,71.1,24.1,30.30,WNW,292,9.8,9.8,17,0.00,,,0.00,VWS V14.01,2013-01-24 20:26:00,
2013-01-24 15:31:00,71.4,19.8,30.30,NNW,338,9.4,9.4,14,0.00,,,0.00,VWS V14.01,2013-01-24 20:31:00,
2013-01-24 15:36:00,72.5,20.6,30.30,WNW,292,10.7,10.7,14,0.00,,,0.00,VWS V14.01,2013-01-24 20:36:00,
2013-01-24 15:41:00,72.7,20.8,30.30,NW,315,8.5,8.5,14,0.00,,,0.00,VWS V14.01,2013-01-24 20:41:00,
2013-01-24 15:46:00,72.3,20.5,30.30,NNW,338,7.8,7.8,14,0.00,,,0.00,VWS V14.01,2013-01-24 20:46:00,
2013-01-24 15:51:00,72.0,20.2,30.33,NW,315,5.8,5.8,14,0.00,,,0.00,VWS V14.01,2013-01-24 20:51:00,
2013-01-24 15:56:00,71.8,20.1,30.33,NNW,338,4.7,4.7,14,0.00,,,0.00,VWS V14.01,2013-01-24 20:56:00,
2013-01-24 16:01:00,71.6,23.1,30.33,West,270,3.6,8.1,16,0.00,,,0.00,VWS V14.01,2013-01-24 21:01:00,
2013-01-24 16:06:00,71.6,23.1,30.33,NW,315,2.9,3.6,16,0.00,,,0.00,VWS V14.01,2013-01-24 21:06:00,
2013-01-24 16:11:00,71.6,23.1,30.33,SE,135,3.1,7.6,16,0.00,,,0.00,VWS V14.01,2013-01-24 21:11:00,
2013-01-24 16:16:00,71.1,24.1,30.33,NNE,22,3.1,4.0,17,0.00,,,0.00,VWS V14.01,2013-01-24 21:16:00,
2013-01-24 16:21:00,71.1,24.1,30.33,NNW,338,3.6,3.6,17,0.00,,,0.00,VWS V14.01,2013-01-24 21:21:00,
2013-01-24 16:26:00,70.5,23.6,30.33,NNW,338,6.5,6.5,17,0.00,,,0.00,VWS V14.01,2013-01-24 21:26:00,
2013-01-24 16:31:00,70.2,26.0,30.33,ENE,68,3.1,3.1,19,0.00,,,0.00,VWS V14.01,2013-01-24 21:31:00,
2013-01-24 16:36:00,70.0,25.9,30.33,NNW,338,6.0,6.0,19,0.00,,,0.00,VWS V14.01,2013-01-24 21:36:00,
2013-01-24 16:41:00,69.6,26.8,30.33,North,0,3.1,3.1,20,0.00,,,0.00,VWS V14.01,2013-01-24 21:41:00,
2013-01-24 16:46:00,69.6,29.1,30.33,NW,315,3.8,4.0,22,0.00,,,0.00,VWS V14.01,2013-01-24 21:46:00,
2013-01-24 16:51:00,68.9,28.5,30.33,WNW,292,2.0,3.6,22,0.00,,,0.00,VWS V14.01,2013-01-24 21:51:00,
2013-01-24 16:56:00,68.9,28.5,30.33,WNW,292,7.2,7.2,22,0.00,,,0.00,VWS V14.01,2013-01-24 21:56:00,
2013-01-24 17:01:00,68.7,28.4,30.33,NNW,338,5.4,5.4,22,0.00,,,0.00,VWS V14.01,2013-01-24 22:01:00,
2013-01-24 17:06:00,68.7,29.5,30.33,NNW,338,4.0,4.9,23,0.00,,,0.00,VWS V14.01,2013-01-24 22:06:00,
2013-01-24 17:11:00,68.4,29.1,30.33,North,0,3.8,3.8,23,0.00,,,0.00,VWS V14.01,2013-01-24 22:11:00,
2013-01-24 17:16:00,67.8,29.7,30.33,NNW,338,4.7,4.7,24,0.00,,,0.00,VWS V14.01,2013-01-24 22:16:00,
2013-01-24 17:21:00,67.5,29.4,30.36,WNW,292,4.3,4.3,24,0.00,,,0.00,VWS V14.01,2013-01-24 22:21:00,
2013-01-24 17:26:00,67.1,29.1,30.36,NNE,22,3.8,3.8,24,0.00,,,0.00,VWS V14.01,2013-01-24 22:26:00,
2013-01-24 17:31:00,66.7,29.8,30.36,North,0,2.7,3.4,25,0.00,,,0.00,VWS V14.01,2013-01-24 22:31:00,
2013-01-24 17:37:00,66.0,31.1,30.33,WNW,292,2.7,3.1,27,0.00,,,0.00,VWS V14.01,2013-01-24 22:37:00,
2013-01-24 17:42:00,65.3,31.4,30.33,WNW,292,3.1,3.1,28,0.00,,,0.00,VWS V14.01,2013-01-24 22:42:00,
2013-01-24 17:47:00,64.6,31.6,30.33,West,270,2.0,2.5,29,0.00,,,0.00,VWS V14.01,2013-01-24 22:47:00,
2013-01-24 17:52:00,64.0,32.8,30.36,NNE,22,2.2,2.5,31,0.00,,,0.00,VWS V14.01,2013-01-24 22:52:00,
2013-01-24 17:57:00,63.5,34.7,30.36,WSW,248,3.1,3.8,34,0.00,,,0.00,VWS V14.01,2013-01-24 22:57:00,
2013-01-24 18:02:00,63.1,34.3,30.36,WNW,292,2.7,4.0,34,0.00,,,0.00,VWS V14.01,2013-01-24 23:02:00,
2013-01-24 18:07:00,62.6,33.9,30.33,West,270,3.4,3.4,34,0.00,,,0.00,VWS V14.01,2013-01-24 23:07:00,
2013-01-24 18:12:00,62.4,34.4,30.33,West,270,2.7,3.1,35,0.00,,,0.00,VWS V14.01,2013-01-24 23:12:00,
2013-01-24 18:17:00,61.9,34.0,30.33,West,270,2.9,2.9,35,0.00,,,0.00,VWS V14.01,2013-01-24 23:17:00,
2013-01-24 18:22:00,61.7,33.8,30.33,West,270,3.1,3.1,35,0.00,,,0.00,VWS V14.01,2013-01-24 23:22:00,
2013-01-24 18:27:00,61.3,34.2,30.33,WNW,292,1.6,1.6,36,0.00,,,0.00,VWS V14.01,2013-01-24 23:27:00,
2013-01-24 18:32:00,61.0,33.2,30.33,WNW,292,2.0,2.0,35,0.00,,,0.00,VWS V14.01,2013-01-24 23:32:00,
2013-01-24 18:37:00,60.8,33.7,30.33,NNE,22,2.9,2.9,36,0.00,,,0.00,VWS V14.01,2013-01-24 23:37:00,
2013-01-24 18:42:00,60.6,34.2,30.33,West,270,3.8,3.8,37,0.00,,,0.00,VWS V14.01,2013-01-24 23:42:00,
2013-01-24 18:47:00,60.4,34.1,30.33,NW,315,0.9,1.3,37,0.00,,,0.00,VWS V14.01,2013-01-24 23:47:00,
2013-01-24 18:52:00,59.9,33.6,30.33,WNW,292,1.3,2.5,37,0.00,,,0.00,VWS V14.01,2013-01-24 23:52:00,
2013-01-24 18:57:00,59.7,34.1,30.33,North,0,1.3,1.3,38,0.00,,,0.00,VWS V14.01,2013-01-24 23:57:00,
2013-01-24 19:02:00,59.5,33.3,30.33,WNW,292,1.3,1.3,37,0.00,,,0.00,VWS V14.01,2013-01-25 00:02:00,
2013-01-24 19:07:00,59.2,33.6,30.33,WNW,292,1.6,1.6,38,0.00,,,0.00,VWS V14.01,2013-01-25 00:07:00,
2013-01-24 19:12:00,59.2,33.6,30.33,NNE,22,1.3,2.0,38,0.00,,,0.00,VWS V14.01,2013-01-25 00:12:00,
2013-01-24 19:17:00,59.0,34.1,30.33,WNW,292,1.1,1.1,39,0.00,,,0.00,VWS V14.01,2013-01-25 00:17:00,
2013-01-24 19:22:00,58.6,33.8,30.33,West,270,0.0,0.0,39,0.00,,,0.00,VWS V14.01,2013-01-25 00:22:00,
2013-01-24 19:27:00,58.5,34.9,30.33,NNE,22,0.0,0.0,41,0.00,,,0.00,VWS V14.01,2013-01-25 00:27:00,
2013-01-24 19:32:00,58.5,34.9,30.33,North,0,0.9,0.9,41,0.00,,,0.00,VWS V14.01,2013-01-25 00:32:00,
2013-01-24 19:37:00,58.1,34.5,30.33,NNW,338,0.0,0.0,41,0.00,,,0.00,VWS V14.01,2013-01-25 00:37:00,
2013-01-24 19:42:00,57.9,34.4,30.33,NW,315,0.0,0.0,41,0.00,,,0.00,VWS V14.01,2013-01-25 00:42:00,
2013-01-24 19:47:00,58.6,39.0,30.33,ESE,112,2.5,2.5,48,0.00,,,0.00,VWS V14.01,2013-01-25 00:47:00,
2013-01-24 19:52:00,58.6,36.8,30.33,East,90,0.0,0.0,44,0.00,,,0.00,VWS V14.01,2013-01-25 00:52:00,
2013-01-24 19:57:00,57.7,34.8,30.33,East,90,0.0,0.0,42,0.00,,,0.00,VWS V14.01,2013-01-25 00:57:00,
2013-01-24 20:02:00,57.2,33.7,30.33,ESE,112,2.0,2.5,41,0.00,,,0.00,VWS V14.01,2013-01-25 01:02:00,
2013-01-24 20:07:00,57.9,37.8,30.33,ESE,112,1.6,1.6,47,0.00,,,0.00,VWS V14.01,2013-01-25 01:07:00,
2013-01-24 20:12:00,57.6,35.8,30.33,ESE,112,0.0,0.0,44,0.00,,,0.00,VWS V14.01,2013-01-25 01:12:00,
2013-01-24 20:17:00,56.8,35.2,30.36,ESE,112,0.0,0.0,44,0.00,,,0.00,VWS V14.01,2013-01-25 01:17:00,
2013-01-24 20:22:00,56.5,34.8,30.36,ESE,112,2.2,2.5,44,0.00,,,0.00,VWS V14.01,2013-01-25 01:22:00,
2013-01-24 20:27:00,57.4,37.3,30.36,ESE,112,0.0,0.0,47,0.00,,,0.00,VWS V14.01,2013-01-25 01:27:00,
2013-01-24 20:32:00,56.8,35.7,30.33,ESE,112,0.0,0.0,45,0.00,,,0.00,VWS V14.01,2013-01-25 01:32:00,
2013-01-24 20:37:00,56.3,35.2,30.33,East,90,0.0,0.0,45,0.00,,,0.00,VWS V14.01,2013-01-25 01:37:00,
2013-01-24 20:42:00,56.3,37.4,30.33,South,180,2.2,2.2,49,0.00,,,0.00,VWS V14.01,2013-01-25 01:42:00,
2013-01-24 20:47:00,56.5,37.0,30.36,East,90,0.0,0.0,48,0.00,,,0.00,VWS V14.01,2013-01-25 01:47:00,
2013-01-24 20:52:00,55.8,35.3,30.36,East,90,0.0,0.0,46,0.00,,,0.00,VWS V14.01,2013-01-25 01:52:00,
2013-01-24 20:57:00,55.2,34.8,30.36,East,90,0.0,0.0,46,0.00,,,0.00,VWS V14.01,2013-01-25 01:57:00,
2013-01-24 21:02:00,55.9,38.6,30.36,ESE,112,1.6,1.6,52,0.00,,,0.00,VWS V14.01,2013-01-25 02:02:00,
2013-01-24 21:07:00,55.9,37.1,30.33,SSE,158,0.0,0.0,49,0.00,,,0.00,VWS V14.01,2013-01-25 02:07:00,
2013-01-24 21:12:00,55.0,35.2,30.33,SSE,158,0.0,0.0,47,0.00,,,0.00,VWS V14.01,2013-01-25 02:12:00,
2013-01-24 21:18:00,54.7,34.9,30.33,SSE,158,0.0,0.0,47,0.00,,,0.00,VWS V14.01,2013-01-25 02:18:00,
2013-01-24 21:23:00,55.2,38.4,30.36,SE,135,2.2,2.7,53,0.00,,,0.00,VWS V14.01,2013-01-25 02:23:00,
2013-01-24 21:28:00,55.4,36.6,30.36,ESE,112,1.3,1.3,49,0.00,,,0.00,VWS V14.01,2013-01-25 02:28:00,
2013-01-24 21:33:00,54.7,35.4,30.36,ESE,112,0.9,1.3,48,0.00,,,0.00,VWS V14.01,2013-01-25 02:33:00,
2013-01-24 21:38:00,54.5,35.2,30.36,ESE,112,0.0,0.0,48,0.00,,,0.00,VWS V14.01,2013-01-25 02:38:00,
2013-01-24 21:43:00,54.9,39.0,30.36,ESE,112,2.0,2.0,55,0.00,,,0.00,VWS V14.01,2013-01-25 02:43:00,
2013-01-24 21:48:00,54.9,37.6,30.36,ESE,112,0.0,0.0,52,0.00,,,0.00,VWS V14.01,2013-01-25 02:48:00,
2013-01-24 21:53:00,54.1,35.4,30.36,East,90,0.0,0.0,49,0.00,,,0.00,VWS V14.01,2013-01-25 02:53:00,
2013-01-24 21:58:00,53.4,34.2,30.36,East,90,0.0,0.0,48,0.00,,,0.00,VWS V14.01,2013-01-25 02:58:00,
2013-01-24 22:03:00,53.2,34.6,30.36,NE,45,1.6,1.6,49,0.00,,,0.00,VWS V14.01,2013-01-25 03:03:00,
2013-01-24 22:08:00,54.3,38.5,30.36,NNW,338,0.0,0.0,55,0.00,,,0.00,VWS V14.01,2013-01-25 03:08:00,
2013-01-24 22:13:00,53.8,36.1,30.36,NNW,338,0.0,0.0,51,0.00,,,0.00,VWS V14.01,2013-01-25 03:13:00,
2013-01-24 22:18:00,53.6,35.9,30.36,NNW,338,0.0,0.0,51,0.00,,,0.00,VWS V14.01,2013-01-25 03:18:00,
2013-01-24 22:23:00,53.4,36.7,30.36,East,90,2.0,2.2,53,0.00,,,0.00,VWS V14.01,2013-01-25 03:23:00,
2013-01-24 22:28:00,54.1,39.7,30.36,SSE,158,0.0,0.0,58,0.00,,,0.00,VWS V14.01,2013-01-25 03:28:00,
2013-01-24 22:33:00,53.6,36.4,30.36,SSE,158,0.0,0.0,52,0.00,,,0.00,VWS V14.01,2013-01-25 03:33:00,
2013-01-24 22:38:00,52.9,35.3,30.36,SSE,158,0.0,0.0,51,0.00,,,0.00,VWS V14.01,2013-01-25 03:38:00,
2013-01-24 22:43:00,52.3,34.3,30.36,SSE,158,0.0,0.0,50,0.00,,,0.00,VWS V14.01,2013-01-25 03:43:00,
2013-01-24 22:48:00,53.4,40.3,30.36,SE,135,2.2,2.2,61,0.00,,,0.00,VWS V14.01,2013-01-25 03:48:00,
2013-01-24 22:53:00,53.1,36.9,30.36,SE,135,0.0,0.0,54,0.00,,,0.00,VWS V14.01,2013-01-25 03:53:00,
2013-01-24 22:58:00,52.3,35.2,30.36,SE,135,0.0,0.0,52,0.00,,,0.00,VWS V14.01,2013-01-25 03:58:00,
2013-01-24 23:03:00,52.2,35.1,30.36,SE,135,0.0,0.0,52,0.00,,,0.00,VWS V14.01,2013-01-25 04:03:00,
2013-01-24 23:08:00,52.3,37.6,30.36,ESE,112,0.0,1.1,57,0.00,,,0.00,VWS V14.01,2013-01-25 04:08:00,
2013-01-24 23:13:00,53.1,41.6,30.36,NNE,22,0.0,0.0,65,0.00,,,0.00,VWS V14.01,2013-01-25 04:13:00,
2013-01-24 23:18:00,52.7,38.3,30.36,NNE,22,0.0,0.0,58,0.00,,,0.00,VWS V14.01,2013-01-25 04:18:00,
2013-01-24 23:23:00,51.6,35.1,30.36,NNE,22,0.0,0.0,53,0.00,,,0.00,VWS V14.01,2013-01-25 04:23:00,
2013-01-24 23:28:00,52.3,40.1,30.36,North,0,1.3,1.6,63,0.00,,,0.00,VWS V14.01,2013-01-25 04:28:00,
2013-01-24 23:33:00,52.9,42.2,30.36,SSE,158,0.0,2.0,67,0.00,,,0.00,VWS V14.01,2013-01-25 04:33:00,
2013-01-24 23:38:00,52.2,37.4,30.36,SW,225,0.0,0.0,57,0.00,,,0.00,VWS V14.01,2013-01-25 04:38:00,
2013-01-24 23:43:00,52.0,36.3,30.36,WNW,292,0.0,0.0,55,0.00,,,0.00,VWS V14.01,2013-01-25 04:43:00,
2013-01-24 23:48:00,51.8,35.7,30.36,NW,315,1.1,1.1,54,0.00,,,0.00,VWS V14.01,2013-01-25 04:48:00,
2013-01-24 23:53:00,52.2,39.1,30.36,NNE,22,0.0,0.0,61,0.00,,,0.00,VWS V14.01,2013-01-25 04:53:00,
2013-01-24 23:58:00,52.0,37.7,30.36,North,0,0.0,0.0,58,0.00,,,0.00,VWS V14.01,2013-01-25 04:58:00,